Location: C�mpuri de-Sus
(45.9500°N, 22.5500°E)
Time: 11:06:11
(UTC+00:00)

Cosmos 2278 Rocket - Pass Details

Date: 05 June 2022
Orbit: 840 x 846 km, 71.0° (Epoch: 01 July)

Event Time Altitude Azimuth Distance (km) Brightness Sun altitude
Rises 19:29:33 0° 340° (NNW) 3,418 6.8 -10.4°
Reaches altitude 10° 19:32:29 10° 354° (N) 2,478 5.6 -10.7°
Maximum altitude 19:37:05 25° 48° (NE) 1,666 3.8 -11.2°
Drops below altitude 10° 19:41:39 10° 102° (ESE) 2,465 4.2 -11.7°
Enters shadow 19:42:02 - 104° (ESE) 2,578 4.3 -11.8°
